02/09/2026 / 06/09/2026
| Fecha / Hora | Descripción | Porcentaje Nubes | Temperatura | Humedad | Viento | |
| miércoles 02/09/2026 00:00 hs | lluvia ligera | 33 % | 24.8 ° | 86 % | 17.8 Km/h | |
| miércoles 02/09/2026 03:00 hs | lluvia ligera | 39 % | 24.8 ° | 85 % | 15.6 Km/h | |
| miércoles 02/09/2026 06:00 hs | lluvia ligera | 78 % | 24.9 ° | 82 % | 14.9 Km/h | |
| miércoles 02/09/2026 09:00 hs | muy nuboso | 60 % | 27.7 ° | 66 % | 14.7 Km/h | |
| miércoles 02/09/2026 12:00 hs | cielo claro | 6 % | 28.4 ° | 63 % | 17 Km/h | |
| miércoles 02/09/2026 15:00 hs | algo de nubes | 20 % | 27.8 ° | 65 % | 16.9 Km/h | |
| miércoles 02/09/2026 18:00 hs | muy nuboso | 57 % | 25.5 ° | 80 % | 14.4 Km/h | |
| miércoles 02/09/2026 21:00 hs | nubes dispersas | 30 % | 25.3 ° | 85 % | 16.5 Km/h | |
| jueves 03/09/2026 00:00 hs | cielo claro | 0 % | 25.4 ° | 82 % | 19.9 Km/h | |
| jueves 03/09/2026 03:00 hs | cielo claro | 1 % | 25.2 ° | 82 % | 19.3 Km/h | |
| jueves 03/09/2026 06:00 hs | lluvia ligera | 34 % | 25.5 ° | 83 % | 21.3 Km/h | |
| jueves 03/09/2026 09:00 hs | lluvia ligera | 43 % | 27.1 ° | 74 % | 21.2 Km/h | |
| jueves 03/09/2026 12:00 hs | lluvia ligera | 22 % | 27.5 ° | 72 % | 20.8 Km/h | |
| jueves 03/09/2026 15:00 hs | lluvia ligera | 31 % | 27.1 ° | 74 % | 21.8 Km/h | |
| jueves 03/09/2026 18:00 hs | lluvia ligera | 56 % | 25.6 ° | 84 % | 19.6 Km/h | |
| jueves 03/09/2026 21:00 hs | nubes dispersas | 32 % | 25.1 ° | 85 % | 15.3 Km/h | |
| viernes 04/09/2026 00:00 hs | lluvia ligera | 12 % | 24.9 ° | 86 % | 18.5 Km/h | |
| viernes 04/09/2026 03:00 hs | lluvia ligera | 22 % | 24.8 ° | 87 % | 18.6 Km/h | |
| viernes 04/09/2026 06:00 hs | lluvia ligera | 10 % | 25.1 ° | 86 % | 21.9 Km/h | |
| viernes 04/09/2026 09:00 hs | lluvia ligera | 11 % | 26.9 ° | 76 % | 24 Km/h | |
| viernes 04/09/2026 12:00 hs | lluvia ligera | 20 % | 27.6 ° | 70 % | 21.4 Km/h | |
| viernes 04/09/2026 15:00 hs | algo de nubes | 18 % | 27 ° | 71 % | 18 Km/h | |
| viernes 04/09/2026 18:00 hs | cielo claro | 6 % | 25.3 ° | 83 % | 14.8 Km/h | |
| viernes 04/09/2026 21:00 hs | cielo claro | 6 % | 25.3 ° | 84 % | 17.1 Km/h | |
| sábado 05/09/2026 00:00 hs | lluvia ligera | 34 % | 24.9 ° | 85 % | 20.6 Km/h | |
| sábado 05/09/2026 03:00 hs | lluvia ligera | 38 % | 24.8 ° | 83 % | 18.8 Km/h | |
| sábado 05/09/2026 06:00 hs | cielo claro | 10 % | 24.9 ° | 83 % | 17.3 Km/h | |
| sábado 05/09/2026 09:00 hs | algo de nubes | 14 % | 27 ° | 69 % | 21.8 Km/h | |
| sábado 05/09/2026 12:00 hs | cielo claro | 3 % | 27.5 ° | 64 % | 18.6 Km/h | |
| sábado 05/09/2026 15:00 hs | cielo claro | 2 % | 27.1 ° | 66 % | 15.9 Km/h | |
| sábado 05/09/2026 18:00 hs | cielo claro | 0 % | 25.2 ° | 80 % | 13.7 Km/h | |
| sábado 05/09/2026 21:00 hs | cielo claro | 2 % | 24.9 ° | 81 % | 13.8 Km/h | |
| domingo 06/09/2026 00:00 hs | cielo claro | 3 % | 24.5 ° | 83 % | 12.8 Km/h | |
| domingo 06/09/2026 03:00 hs | lluvia ligera | 9 % | 24.6 ° | 84 % | 13.1 Km/h | |
| domingo 06/09/2026 06:00 hs | lluvia ligera | 76 % | 25.6 ° | 83 % | 12.5 Km/h | |
| domingo 06/09/2026 09:00 hs | lluvia ligera | 51 % | 27.7 ° | 71 % | 19.4 Km/h | |
| domingo 06/09/2026 12:00 hs | lluvia ligera | 14 % | 28 ° | 68 % | 17.4 Km/h | |
| domingo 06/09/2026 15:00 hs | algo de nubes | 11 % | 27.5 ° | 70 % | 15.3 Km/h | |
| domingo 06/09/2026 18:00 hs | lluvia ligera | 5 % | 25.4 ° | 86 % | 15.3 Km/h | |
| domingo 06/09/2026 21:00 hs | cielo claro | 5 % | 25.4 ° | 85 % | 18.1 Km/h |
Fuente: Open Weather Map
Marea ALTA: 01:50 miércoles 27 de noviembre 2024
Marea BAJA: 08:00 miércoles 27 de noviembre 2024
Marea ALTA: 14:15 miércoles 27 de noviembre 2024
Marea BAJA: 20:28 miércoles 27 de noviembre 2024
Marea ALTA: 02:34 jueves 28 de noviembre 2024
Marea BAJA: 08:44 jueves 28 de noviembre 2024
Marea ALTA: 14:59 jueves 28 de noviembre 2024
Marea BAJA: 21:09 jueves 28 de noviembre 2024
IMPORTANTE: La información de las Mareas es APROXIMADA basada en predicciones, con precisión para ocio y turismo, no para fines profesionales
Ver artículos sobre Clima en Brasil
Ver Resumen sobre el clima en Brasil en cada región
© 2009 / 2026 - BrasilPlayas.com
Diseño y desarrollo: ArraialWebDesign
Los artículos publicados en esta web son propiedad intelectual de sus respectivos autores, que se reservan todos los derechos sobre los mismos
Las imágenes contenidas en este sitio están sujetas a la respectiva licencia y acreditación que las acompaña
Este website usa Cookies. Saber más sobre nuestra política de Cookies